Date String (YYYY-MM-DD hh:mm:ss) UTC,Instrument flags,Ambient pressure (hPa),Sample flow (lpm),Bypass flow (lpm),Sample temperature (°C),Ambient temperature (°C),ASC tube jacket temperature (°C),LED temperature (°C),Box temperature (°C),Sample RH (%),Span deviation,Mass concentration (μg/m³),Mass concentration (μg/m³),Mass concentration (μg/m³)
DateTimeUTC,F1_M11,P_M11,Q1_M11,Q2_M11,T1_M11,T2_M11,T3_M11,T4_M11,T5_M11,U1_M11,ZSPAN_M11,X2_M11,X0_M11,X1_M11
2021-12-22 20:00:00,,0820.1,4.99,0.00,26.8,25.7,00.0,35.7,28.5,02.5,0000.0,0000.64,0003.05,0000.32
2021-12-22 20:01:00,,0820.1,5.01,0.00,26.8,25.8,00.0,35.7,28.5,02.5,0000.0,0000.64,0002.94,0000.33
2021-12-22 20:02:00,,0820.2,4.98,0.00,26.8,25.8,00.0,35.7,28.5,02.6,0000.0,0000.65,0002.91,0000.32
2021-12-22 20:03:00,,0820.2,5.01,0.00,26.8,25.7,00.0,35.7,28.4,02.5,0000.0,0000.63,0002.99,0000.31
2021-12-22 20:04:00,,0820.1,5.00,0.00,26.8,25.7,00.0,35.7,28.4,02.5,0000.0,0000.63,0003.84,0000.31
2021-12-22 20:05:00,,0820.2,5.00,0.00,26.8,25.7,00.0,35.7,28.5,02.5,0000.0,0000.61,0003.83,0000.30
2021-12-22 20:06:00,,0820.2,5.00,0.00,26.8,25.7,00.0,35.7,28.5,02.6,0000.0,0000.59,0003.82,0000.30
2021-12-22 20:07:00,,0820.2,4.99,0.00,26.8,25.7,00.0,35.7,28.5,02.6,0000.0,0000.42,0001.96,0000.28
2021-12-22 20:08:00,,0820.2,5.00,0.00,26.8,25.7,00.0,35.8,28.5,02.6,0000.0,0000.38,0003.11,0000.27
2021-12-22 20:09:00,,0820.0,5.01,0.00,26.8,25.7,00.0,35.7,28.5,02.6,0000.0,0000.37,0003.58,0000.27
2021-12-22 20:10:00,,0820.0,5.00,0.00,26.8,25.7,00.0,35.8,28.5,02.6,0000.0,0000.36,0003.55,0000.26
2021-12-22 20:11:00,,0820.0,5.01,0.00,26.8,25.7,00.0,35.8,28.5,02.6,0000.0,0000.36,0003.53,0000.26
2021-12-22 20:12:00,,0820.0,5.01,0.00,26.8,25.7,00.0,35.8,28.5,02.6,0000.0,0000.35,0003.51,0000.25
2021-12-22 20:13:00,,0820.0,4.99,0.00,26.9,25.8,00.0,35.8,28.6,02.6,0000.0,0000.35,0003.57,0000.25
2021-12-22 20:14:00,,0820.0,5.00,0.00,26.9,25.8,00.0,35.8,28.6,02.6,0000.0,0000.35,0003.57,0000.25
2021-12-22 20:15:00,,0819.9,4.99,0.00,26.9,25.8,00.0,35.8,28.6,02.6,0000.0,0000.37,0002.78,0000.25
2021-12-22 20:16:00,,0819.9,4.98,0.00,26.9,25.8,00.0,35.8,28.5,02.6,0000.0,0000.37,0002.58,0000.26
2021-12-22 20:17:00,,0819.9,5.01,0.00,26.9,25.8,00.0,35.8,28.6,02.6,0000.0,0000.37,0002.60,0000.26
2021-12-22 20:18:00,,0819.9,4.99,0.00,26.9,25.8,00.0,35.8,28.6,02.6,0000.0,0000.37,0002.63,0000.25
2021-12-22 20:19:00,,0820.0,5.01,0.00,26.9,25.9,00.0,35.8,28.6,02.7,0000.0,0000.39,0001.39,0000.25
2021-12-22 20:20:00,,0820.0,5.00,0.00,26.9,25.8,00.0,35.8,28.6,02.6,0000.0,0000.48,0001.32,0000.27
2021-12-22 20:21:00,,0820.0,5.01,0.00,26.9,25.8,00.0,35.8,28.6,02.6,0000.0,0000.50,0001.37,0000.27
2021-12-22 20:22:00,,0820.0,4.99,0.00,26.9,25.8,00.0,35.8,28.6,02.6,0000.0,0000.53,0001.84,0000.26
2021-12-22 20:23:00,,0820.0,5.02,0.00,26.9,25.8,00.0,35.8,28.6,02.6,0000.0,0000.64,0002.42,0000.28
2021-12-22 20:24:00,,0820.0,4.98,0.00,26.9,25.8,00.0,35.8,28.6,02.7,0000.0,0000.65,0002.40,0000.29
2021-12-22 20:25:00,,0819.9,5.00,0.00,26.9,25.9,00.0,35.8,28.6,02.6,0000.0,0000.67,0002.43,0000.29
2021-12-22 20:26:00,,0819.9,5.00,0.00,26.9,25.9,00.0,35.9,28.6,02.6,0000.0,0000.67,0002.93,0000.30
2021-12-22 20:27:00,,0819.9,4.99,0.00,26.9,25.8,00.0,35.9,28.6,02.6,0000.0,0000.72,0004.19,0000.30
2021-12-22 20:28:00,,0819.9,5.01,0.00,26.9,25.9,00.0,35.9,28.6,02.6,0000.0,0000.75,0004.17,0000.31
2021-12-22 20:29:00,,0820.0,4.99,0.00,26.9,25.9,00.0,35.9,28.6,02.6,0000.0,0000.75,0004.17,0000.31
2021-12-22 20:30:00,,0819.9,4.99,0.00,26.9,25.9,00.0,35.9,28.7,02.7,0000.0,0000.72,0004.09,0000.31
2021-12-22 20:31:00,,0820.0,5.00,0.00,26.9,25.9,00.0,35.9,28.7,02.7,0000.0,0000.63,0003.69,0000.30
2021-12-22 20:32:00,,0820.0,5.01,0.00,26.9,25.9,00.0,35.9,28.6,02.7,0000.0,0000.60,0003.59,0000.30
2021-12-22 20:33:00,,0820.1,4.99,0.00,26.9,25.9,00.0,35.9,28.6,02.7,0000.0,0000.60,0003.42,0000.29
2021-12-22 20:34:00,,0820.2,5.00,0.00,26.9,25.9,00.0,35.9,28.6,02.7,0000.0,0000.53,0003.26,0000.29
2021-12-22 20:35:00,,0820.2,4.99,0.00,26.9,25.9,00.0,35.9,28.7,02.7,0000.0,0000.50,0003.13,0000.29
2021-12-22 20:36:00,,0820.0,5.00,0.00,26.9,25.9,00.0,35.9,28.6,02.6,0000.0,0000.49,0003.12,0000.29
2021-12-22 20:37:00,,0820.1,5.01,0.00,27.0,25.9,00.0,35.9,28.7,02.7,0000.0,0000.47,0002.78,0000.28
2021-12-22 20:38:00,,0820.2,5.00,0.00,27.0,26.0,00.0,35.9,28.7,02.7,0000.0,0000.42,0001.32,0000.28
2021-12-22 20:39:00,,0820.1,4.99,0.00,27.0,26.0,00.0,35.9,28.6,03.0,0000.0,0000.38,0001.21,0000.27
2021-12-22 20:40:00,,0820.0,5.01,0.00,27.0,26.0,00.0,35.9,28.6,03.1,0000.0,0000.38,0001.96,0000.27
2021-12-22 20:41:00,,0820.1,4.99,0.00,27.0,26.0,00.0,35.9,28.7,03.0,0000.0,0000.39,0002.83,0000.26
2021-12-22 20:42:00,,0819.7,5.01,0.00,27.0,26.1,00.0,35.9,28.7,03.0,0000.0,0000.39,0002.81,0000.25
2021-12-22 20:43:00,,0820.0,4.99,0.00,27.0,26.1,00.0,35.9,28.7,02.9,0000.0,0000.39,0002.83,0000.25
2021-12-22 20:44:00,,0820.2,5.01,0.00,27.0,26.0,00.0,35.9,28.6,02.8,0000.0,0000.38,0002.77,0000.25
2021-12-22 20:45:00,,0820.1,5.00,0.00,27.0,26.0,00.0,35.9,28.6,02.8,0000.0,0000.35,0002.24,0000.25
2021-12-22 20:46:00,,0820.0,4.99,0.00,27.0,26.0,00.0,35.9,28.7,02.8,0000.0,0000.34,0002.21,0000.24
2021-12-22 20:47:00,,0820.0,5.01,0.00,27.0,26.0,00.0,35.9,28.7,03.0,0000.0,0000.34,0002.19,0000.24
2021-12-22 20:48:00,,0820.0,5.00,0.00,27.0,26.0,00.0,35.9,28.7,02.8,0000.0,0000.33,0002.18,0000.23
2021-12-22 20:49:00,,0819.9,5.00,0.00,27.0,26.1,00.0,35.9,28.7,02.8,0000.0,0000.33,0002.17,0000.23
2021-12-22 20:50:00,,0819.9,5.02,0.00,27.0,26.1,00.0,35.9,28.8,02.8,0000.0,0000.34,0002.17,0000.24
2021-12-22 20:51:00,,0819.9,5.00,0.00,27.0,26.1,00.0,35.9,28.7,02.8,0000.0,0000.33,0001.34,0000.24
2021-12-22 20:52:00,,0819.9,4.98,0.00,27.0,26.1,00.0,36.0,28.7,02.8,0000.0,0000.32,0000.48,0000.24
2021-12-22 20:53:00,,0820.0,5.01,0.00,27.1,26.1,00.0,36.0,28.8,02.7,0000.0,0000.31,0000.43,0000.26
2021-12-22 20:54:00,,0820.0,5.01,0.00,27.1,26.1,00.0,36.0,28.8,02.8,0000.0,0000.31,0000.40,0000.26
2021-12-22 20:55:00,,0819.9,5.00,0.00,27.1,26.1,00.0,36.0,28.8,02.8,0000.0,0000.33,0000.45,0000.27
2021-12-22 20:56:00,,0819.9,5.00,0.00,27.1,26.1,00.0,36.0,28.8,02.8,0000.0,0000.35,0000.74,0000.27
2021-12-22 20:57:00,,0819.9,5.01,0.00,27.1,26.1,00.0,36.0,28.8,02.8,0000.0,0000.35,0000.80,0000.27
2021-12-22 20:58:00,,0819.9,5.00,0.00,27.1,26.1,00.0,36.0,28.8,03.1,0000.0,0000.35,0000.80,0000.28
2021-12-22 20:59:00,,0819.8,5.01,0.00,27.1,26.1,00.0,36.0,28.8,03.2,0000.0,0000.36,0000.82,0000.28
